FW2285 Weather Reports


Display with metric or nautical units.
time (UTC)temp
F
wind
direction
speed
MPH
gust
MPH
rain 1hr
in
rain 24hr
in
rain mn
in
humidity
%
barometer
mb
20260902204521 98 119 1.0 7.0 0.00 0.00 0.00 30 1012.3
20260902203019 97 123 1.0 6.0 0.00 0.00 0.00 30 1012.3
20260902201523 98 126 1.0 6.0 0.00 0.00 0.00 28 1012.4
20260902200017 97 103 0.0 4.0 0.00 0.00 0.00 31 1012.8
20260902194516 98 78 0.0 4.0 0.00 0.00 0.00 31 1012.9
20260902193012 98 126 1.0 6.0 0.00 0.00 0.00 31 1013.0
20260902191511 98 138 0.0 8.0 0.00 0.00 0.00 33 1013.1
20260902190010 97 105 1.0 8.0 0.00 0.00 0.00 35 1013.5
20260902184509 97 306 1.0 3.0 0.00 0.00 0.00 35 1013.6
20260902183013 96 113 1.0 5.0 0.00 0.00 0.00 32 1013.8
20260902181507 97 279 0.0 9.0 0.00 0.00 0.00 33 1013.9
20260902180007 97 263 2.0 8.0 0.00 0.00 0.00 36 1014.2
20260902174505 96 216 2.0 6.0 0.00 0.00 0.00 36 1014.3
20260902173057 95 263 3.0 7.0 0.00 0.00 0.00 37 1014.5
20260902171555 95 236 0.0 9.0 0.00 0.00 0.00 39 1014.7
20260902170051 93 97 1.0 7.0 0.00 0.00 0.00 39 1014.8
20260902164548 92 95 1.0 10.0 0.00 0.00 0.00 41 1014.8
20260902163055 91 180 0.0 4.0 0.00 0.00 0.00 43 1015.0
20260902161550 90 236 2.0 10.0 0.00 0.00 0.00 43 1015.0
20260902160037 89 254 2.0 9.0 0.00 0.00 0.00 44 1015.0
20260902154535 89 313 0.0 4.0 0.00 0.00 0.00 46 1014.9
20260902153031 87 230 0.0 9.0 0.00 0.00 0.00 47 1014.9
20260902151530 86 281 0.0 8.0 0.00 0.00 0.00 46 1015.0
20260902150024 85 107 1.0 4.0 0.00 0.00 0.00 49 1015.0
20260902144530 84 113 0.0 4.0 0.00 0.00 0.00 51 1015.0
20260902143017 82 138 0.0 5.0 0.00 0.00 0.00 52 1015.0
20260902141519 81 163 1.0 3.0 0.00 0.00 0.00 53 1015.1
20260902140016 79 217 0.0 4.0 0.00 0.00 0.00 56 1015.1
20260902134506 77 145 0.0 2.0 0.00 0.00 0.00 59 1015.1
20260902133100 76 150 0.0 1.0 0.00 0.00 0.00 61 1015.0
20260902131558 74 150 0.0 1.0 0.00 0.00 0.00 62 1015.2
20260902124602 72 150 0.0 0.0 0.00 0.00 0.00 63 1014.9
20260902123102 72 150 0.0 0.0 0.00 0.00 0.00 63 1014.9
20260902121607 72 150 0.0 0.0 0.00 0.00 0.00 63 1014.8
20260902120055 71 150 0.0 0.0 0.00 0.00 0.00 62 1014.8
20260902114554 71 150 0.0 0.0 0.00 0.00 0.00 62 1014.6
20260902113058 71 150 0.0 0.0 0.00 0.00 0.00 62 1014.6
20260902111553 72 150 0.0 0.0 0.00 0.00 0.00 62 1014.6
20260902110051 72 150 0.0 0.0 0.00 0.00 0.00 62 1014.5
20260902104553 72 150 0.0 0.0 0.00 0.00 0.00 61 1014.4
20260902103047 72 150 0.0 0.0 0.00 0.00 0.00 61 1014.5
20260902101547 72 150 0.0 0.0 0.00 0.00 0.00 61 1014.3
20260902094543 72 150 0.0 0.0 0.00 0.00 0.00 61 1014.2
20260902093043 72 150 0.0 0.0 0.00 0.00 0.00 61 1014.0
20260902091540 73 150 0.0 0.0 0.00 0.00 0.00 60 1014.1
20260902090038 73 150 0.0 0.0 0.00 0.00 0.00 60 1013.8
20260902084539 73 150 0.0 0.0 0.00 0.00 0.00 59 1013.6
20260902083037 73 150 0.0 0.0 0.00 0.00 0.00 59 1013.7
20260902081535 73 150 0.0 0.0 0.00 0.00 0.00 59 1013.6
20260902080034 74 150 0.0 0.0 0.00 0.00 0.00 59 1013.6
20260902074533 74 150 0.0 0.0 0.00 0.00 0.00 58 1013.6
20260902073035 74 150 0.0 0.0 0.00 0.00 0.00 58 1013.3
20260902071531 74 150 0.0 0.0 0.00 0.00 0.00 58 1013.4
20260902070029 74 150 0.0 0.0 0.00 0.00 0.00 57 1013.6
20260902064528 74 150 0.0 0.0 0.00 0.00 0.00 57 1013.7
20260902063026 75 150 0.0 0.0 0.00 0.00 0.00 57 1013.6
20260902061526 75 150 0.0 0.0 0.00 0.00 0.00 56 1013.6
20260902060026 75 150 0.0 0.0 0.00 0.00 0.00 56 1013.3
20260902054524 75 150 0.0 0.0 0.00 0.00 0.00 56 1013.4
20260902053022 76 150 0.0 0.0 0.00 0.00 0.00 56 1013.4
20260902051520 76 150 0.0 0.0 0.00 0.00 0.00 55 1013.4
20260902050019 76 150 0.0 0.0 0.00 0.00 0.00 55 1013.3
20260902044519 77 150 0.0 0.0 0.00 0.00 0.00 54 1013.3
20260902043016 77 150 0.0 0.0 0.00 0.00 0.00 53 1013.3
20260902041517 77 150 0.0 0.0 0.00 0.00 0.00 51 1013.2
20260902040016 78 150 0.0 0.0 0.00 0.00 0.00 51 1013.3
20260902034517 79 150 0.0 0.0 0.00 0.00 0.00 50 1013.4
20260902033015 79 150 0.0 0.0 0.00 0.00 0.00 50 1013.4
20260902031515 80 150 0.0 0.0 0.00 0.00 0.00 49 1013.1
20260902030014 80 150 0.0 0.0 0.00 0.00 0.00 48 1013.0
20260902024513 81 150 0.0 0.0 0.00 0.00 0.00 47 1012.8
20260902023015 82 150 0.0 0.0 0.00 0.00 0.00 46 1012.8
20260902021512 83 150 0.0 0.0 0.00 0.00 0.00 45 1012.9
20260902020012 84 150 0.0 0.0 0.00 0.00 0.00 42 1012.7
20260902014528 85 150 0.0 0.0 0.00 0.00 0.00 40 1012.6
20260902013012 87 150 0.0 0.0 0.00 0.00 0.00 37 1012.5
20260902011523 89 150 0.0 0.0 0.00 0.00 0.00 34 1012.4
20260902010010 91 150 0.0 0.0 0.00 0.00 0.00 31 1012.4
20260902004510 92 150 0.0 2.0 0.00 0.00 0.00 29 1012.4
20260902003011 94 150 0.0 0.0 0.00 0.00 0.00 29 1012.4
20260902001508 95 150 0.0 0.0 0.00 0.00 0.00 28 1012.5
20260902000007 96 150 0.0 2.0 0.00 0.00 0.00 27 1012.6
20260901234507 96 150 0.0 3.0 0.00 0.00 0.00 27 1012.7
20260901233005 96 161 0.0 3.0 0.00 0.00 0.00 25 1012.7
20260901231505 97 103 0.0 3.0 0.00 0.00 0.00 26 1012.8
20260901230004 97 261 0.0 4.0 0.00 0.00 0.00 25 1012.6
20260901224504 97 77 0.0 3.0 0.00 0.00 0.00 25 1012.7
20260901223007 98 178 1.0 4.0 0.00 0.00 0.00 23 1012.9
20260901221502 99 63 0.0 6.0 0.00 0.00 0.00 23 1012.7
20260901220004 99 103 1.0 6.0 0.00 0.00 0.00 22 1012.7
20260901214500 100 281 1.0 5.0 0.00 0.00 0.00 22 1012.8
20260901213121 100 94 2.0 8.0 0.00 0.00 0.00 19 1013.0
20260901211558 100 113 1.0 9.0 0.00 0.00 0.00 22 1013.0
20260901210113 101 130 0.0 3.0 0.00 0.00 0.00 23 1013.2